Time,TemperatureF,DewpointF,PressureIn,WindDirection,WindDirectionDegrees,WindSpeedMPH,WindSpeedGustMPH,Humidity,HourlyPrecipIn,Conditions,Clouds,dailyrainin,SoftwareType,DateUTC
2013-02-14 00:00:00,35.7,32.8,29.57,SSW,207,4.0,24.0,89,0.00,,,0.02,Wunderground v.1.15,2013-02-14 06:00:00,
2013-02-14 00:10:00,35.6,32.7,29.57,ESE,122,5.0,24.0,89,0.00,,,0.02,Wunderground v.1.15,2013-02-14 06:10:00,
2013-02-14 00:20:00,35.4,32.8,29.58,SE,129,4.0,24.0,90,0.00,,,0.02,Wunderground v.1.15,2013-02-14 06:20:00,
2013-02-14 00:25:00,35.3,32.7,29.57,SSW,208,4.0,24.0,90,0.00,,,0.02,Wunderground v.1.15,2013-02-14 06:25:00,
2013-02-14 00:35:00,35.1,32.5,29.58,SSE,148,4.0,24.0,90,0.00,,,0.02,Wunderground v.1.15,2013-02-14 06:35:00,
2013-02-14 00:40:00,35.1,32.5,29.58,SSW,212,4.0,24.0,90,0.00,,,0.02,Wunderground v.1.15,2013-02-14 06:40:00,
2013-02-14 00:50:00,34.9,32.3,29.57,SW,221,3.0,24.0,90,0.00,,,0.02,Wunderground v.1.15,2013-02-14 06:50:00,
2013-02-14 01:00:00,34.7,32.3,29.57,SSW,193,4.0,4.0,91,0.00,,,0.02,Wunderground v.1.15,2013-02-14 07:00:00,
2013-02-14 01:10:00,34.7,32.3,29.57,SSW,211,3.0,24.0,91,0.00,,,0.02,Wunderground v.1.15,2013-02-14 07:10:00,
2013-02-14 01:20:00,34.5,32.1,29.57,SSE,158,4.0,4.0,91,0.00,,,0.02,Wunderground v.1.15,2013-02-14 07:20:00,
2013-02-14 01:30:00,34.4,32.0,29.57,SSW,210,4.0,24.0,91,0.00,,,0.02,Wunderground v.1.15,2013-02-14 07:30:00,
2013-02-14 01:40:00,34.2,31.8,29.57,SSW,193,4.0,4.0,91,0.00,,,0.02,Wunderground v.1.15,2013-02-14 07:40:00,
2013-02-14 01:50:00,34.1,32.0,29.57,South,174,3.0,3.0,92,0.00,,,0.02,Wunderground v.1.15,2013-02-14 07:50:00,
2013-02-14 02:00:00,34.1,32.0,29.56,South,169,4.0,4.0,92,0.00,,,0.02,Wunderground v.1.15,2013-02-14 08:00:00,
2013-02-14 02:10:00,34.1,32.0,29.56,SW,233,4.0,4.0,92,0.00,,,0.02,Wunderground v.1.15,2013-02-14 08:10:00,
2013-02-14 02:20:00,34.1,32.0,29.56,SSW,205,3.0,3.0,92,0.00,,,0.02,Wunderground v.1.15,2013-02-14 08:20:00,
2013-02-14 02:30:00,34.1,32.0,29.56,SW,221,5.0,5.0,92,0.00,,,0.02,Wunderground v.1.15,2013-02-14 08:30:00,
2013-02-14 02:40:00,34.1,32.0,29.56,SSE,154,4.0,24.0,92,0.00,,,0.02,Wunderground v.1.15,2013-02-14 08:40:00,
2013-02-14 02:50:00,34.1,32.0,29.56,South,188,4.0,24.0,92,0.00,,,0.02,Wunderground v.1.15,2013-02-14 08:50:00,
2013-02-14 03:00:00,34.1,32.0,29.56,SW,217,5.0,5.0,92,0.00,,,0.02,Wunderground v.1.15,2013-02-14 09:00:00,
2013-02-14 03:10:00,34.0,31.9,29.55,South,172,4.0,24.0,92,0.00,,,0.02,Wunderground v.1.15,2013-02-14 09:10:00,
2013-02-14 03:20:00,34.0,31.9,29.55,SW,215,5.0,5.0,92,0.00,,,0.02,Wunderground v.1.15,2013-02-14 09:20:00,
2013-02-14 03:30:00,33.9,31.8,29.55,SSE,161,4.0,24.0,92,0.00,,,0.02,Wunderground v.1.15,2013-02-14 09:30:00,
2013-02-14 03:40:00,34.0,31.9,29.55,SE,141,5.0,5.0,92,0.00,,,0.02,Wunderground v.1.15,2013-02-14 09:40:00,
2013-02-14 03:50:00,34.0,31.9,29.55,SW,218,4.0,4.0,92,0.00,,,0.02,Wunderground v.1.15,2013-02-14 09:50:00,
2013-02-14 04:00:00,34.1,32.0,29.55,SSW,194,4.0,24.0,92,0.00,,,0.02,Wunderground v.1.15,2013-02-14 10:00:00,
2013-02-14 04:10:00,34.3,32.2,29.55,South,172,5.0,24.0,92,0.00,,,0.02,Wunderground v.1.15,2013-02-14 10:10:00,
2013-02-14 04:20:00,34.3,32.2,29.55,SW,228,4.0,4.0,92,0.00,,,0.02,Wunderground v.1.15,2013-02-14 10:20:00,
2013-02-14 04:30:00,34.5,32.1,29.55,SW,216,5.0,24.0,91,0.00,,,0.02,Wunderground v.1.15,2013-02-14 10:30:00,
2013-02-14 04:40:00,34.4,32.0,29.54,SSE,164,4.0,4.0,91,0.00,,,0.02,Wunderground v.1.15,2013-02-14 10:40:00,
2013-02-14 04:50:00,34.5,32.1,29.54,SSW,212,5.0,24.0,91,0.00,,,0.02,Wunderground v.1.15,2013-02-14 10:50:00,
2013-02-14 05:00:00,34.6,32.2,29.54,SSW,211,6.0,6.0,91,0.00,,,0.02,Wunderground v.1.15,2013-02-14 11:00:00,
2013-02-14 05:10:00,34.5,32.1,29.54,SSW,205,4.0,24.0,91,0.00,,,0.02,Wunderground v.1.15,2013-02-14 11:10:00,
2013-02-14 05:20:00,34.4,32.0,29.54,SW,229,4.0,24.0,91,0.00,,,0.02,Wunderground v.1.15,2013-02-14 11:20:00,
2013-02-14 05:30:00,34.4,32.0,29.54,SSW,200,5.0,5.0,91,0.00,,,0.02,Wunderground v.1.15,2013-02-14 11:30:00,
2013-02-14 05:40:00,34.5,32.1,29.54,SW,217,5.0,24.0,91,0.00,,,0.02,Wunderground v.1.15,2013-02-14 11:40:00,
2013-02-14 05:50:00,34.5,32.1,29.55,SSE,164,5.0,5.0,91,0.00,,,0.02,Wunderground v.1.15,2013-02-14 11:50:00,
2013-02-14 06:00:00,34.4,32.0,29.55,SE,143,4.0,4.0,91,0.00,,,0.02,Wunderground v.1.15,2013-02-14 12:00:00,
2013-02-14 06:10:00,34.3,31.9,29.55,SSE,166,3.0,3.0,91,0.00,,,0.02,Wunderground v.1.15,2013-02-14 12:10:00,
2013-02-14 06:20:00,34.3,31.9,29.55,SSE,167,4.0,24.0,91,0.00,,,0.02,Wunderground v.1.15,2013-02-14 12:20:00,
2013-02-14 06:30:00,34.2,31.8,29.55,SSE,165,3.0,3.0,91,0.00,,,0.02,Wunderground v.1.15,2013-02-14 12:30:00,
2013-02-14 06:40:00,34.2,31.8,29.55,South,176,3.0,3.0,91,0.00,,,0.02,Wunderground v.1.15,2013-02-14 12:40:00,
2013-02-14 06:50:00,34.1,31.7,29.55,South,170,3.0,24.0,91,0.00,,,0.02,Wunderground v.1.15,2013-02-14 12:50:00,
2013-02-14 07:00:00,34.1,31.7,29.56,SW,221,4.0,4.0,91,0.00,,,0.02,Wunderground v.1.15,2013-02-14 13:00:00,
2013-02-14 07:10:00,34.2,31.8,29.56,SSW,208,4.0,4.0,91,0.00,,,0.02,Wunderground v.1.15,2013-02-14 13:10:00,
2013-02-14 07:20:00,34.4,32.0,29.56,SSE,167,3.0,3.0,91,0.00,,,0.02,Wunderground v.1.15,2013-02-14 13:20:00,
2013-02-14 07:30:00,34.8,32.2,29.56,South,169,3.0,24.0,90,0.00,,,0.02,Wunderground v.1.15,2013-02-14 13:30:00,
2013-02-14 07:40:00,35.6,32.7,29.56,South,191,5.0,5.0,89,0.00,,,0.02,Wunderground v.1.15,2013-02-14 13:40:00,
2013-02-14 07:50:00,36.2,33.0,29.57,South,176,4.0,24.0,88,0.00,,,0.02,Wunderground v.1.15,2013-02-14 13:50:00,
2013-02-14 08:00:00,36.8,33.3,29.57,SW,233,4.0,4.0,87,0.00,,,0.02,Wunderground v.1.15,2013-02-14 14:00:00,
2013-02-14 08:05:00,37.2,33.1,29.58,WSW,239,3.0,24.0,85,0.00,,,0.02,Wunderground v.1.15,2013-02-14 14:05:00,
2013-02-14 08:15:00,37.9,33.5,29.58,SW,235,4.0,24.0,84,0.00,,,0.02,Wunderground v.1.15,2013-02-14 14:15:00,
2013-02-14 08:25:00,38.5,33.5,29.58,SSW,194,6.0,6.0,82,0.00,,,0.02,Wunderground v.1.15,2013-02-14 14:25:00,
2013-02-14 08:35:00,39.1,33.8,29.58,SW,226,7.0,24.0,81,0.00,,,0.02,Wunderground v.1.15,2013-02-14 14:35:00,
2013-02-14 08:40:00,39.5,34.2,29.58,SW,226,6.0,6.0,81,0.00,,,0.02,Wunderground v.1.15,2013-02-14 14:40:00,
2013-02-14 08:50:00,40.2,34.2,29.59,SW,236,5.0,24.0,79,0.00,,,0.02,Wunderground v.1.15,2013-02-14 14:50:00,
2013-02-14 09:00:00,40.9,34.6,29.59,SE,131,6.0,6.0,78,0.00,,,0.02,Wunderground v.1.15,2013-02-14 15:00:00,
2013-02-14 09:10:00,41.2,34.2,29.59,SW,224,7.0,24.0,76,0.00,,,0.02,Wunderground v.1.15,2013-02-14 15:10:00,
2013-02-14 09:20:00,41.7,34.4,29.59,SW,233,7.0,7.0,75,0.00,,,0.02,Wunderground v.1.15,2013-02-14 15:20:00,
2013-02-14 09:30:00,42.1,34.4,29.59,WSW,239,7.0,24.0,74,0.00,,,0.02,Wunderground v.1.15,2013-02-14 15:30:00,
2013-02-14 09:40:00,42.8,35.1,29.59,SSW,206,6.0,6.0,74,0.00,,,0.00,Wunderground v.1.15,2013-02-14 15:40:00,
2013-02-14 09:50:00,43.2,34.8,29.58,South,187,5.0,24.0,72,0.00,,,0.00,Wunderground v.1.15,2013-02-14 15:50:00,
2013-02-14 10:00:00,43.9,35.5,29.58,SW,224,6.0,24.0,72,0.00,,,0.00,Wunderground v.1.15,2013-02-14 16:00:00,
2013-02-14 10:10:00,44.5,35.0,29.58,SW,224,6.0,24.0,69,0.00,,,0.00,Wunderground v.1.15,2013-02-14 16:10:00,
2013-02-14 10:20:00,45.4,34.7,29.58,SSW,211,5.0,24.0,66,0.00,,,0.00,Wunderground v.1.15,2013-02-14 16:20:00,
2013-02-14 10:30:00,45.2,34.5,29.59,SW,229,8.0,24.0,66,0.00,,,0.00,Wunderground v.1.15,2013-02-14 16:30:00,
2013-02-14 10:35:00,45.5,34.8,29.59,SW,217,7.0,24.0,66,0.00,,,0.00,Wunderground v.1.15,2013-02-14 16:35:00,
2013-02-14 10:45:00,46.4,35.3,29.59,SSW,211,5.0,24.0,65,0.00,,,0.00,Wunderground v.1.15,2013-02-14 16:45:00,
2013-02-14 10:55:00,47.0,35.4,29.59,SW,219,6.0,24.0,64,0.00,,,0.00,Wunderground v.1.15,2013-02-14 16:55:00,
2013-02-14 11:05:00,47.3,35.3,29.58,SSW,212,6.0,24.0,63,0.00,,,0.00,Wunderground v.1.15,2013-02-14 17:05:00,
2013-02-14 11:10:00,47.5,35.1,29.58,SW,229,6.0,24.0,62,0.00,,,0.00,Wunderground v.1.15,2013-02-14 17:10:00,
2013-02-14 11:20:00,48.5,35.7,29.58,SW,235,4.0,24.0,61,0.00,,,0.00,Wunderground v.1.15,2013-02-14 17:20:00,
2013-02-14 11:30:00,48.6,35.3,29.58,SW,226,6.0,6.0,60,0.00,,,0.00,Wunderground v.1.15,2013-02-14 17:30:00,
2013-02-14 11:40:00,48.6,34.5,29.58,SW,228,7.0,7.0,58,0.00,,,0.00,Wunderground v.1.15,2013-02-14 17:40:00,
2013-02-14 11:50:00,49.1,35.4,29.58,WSW,246,5.0,24.0,59,0.00,,,0.00,Wunderground v.1.15,2013-02-14 17:50:00,
2013-02-14 12:00:00,49.4,35.2,29.58,WSW,240,7.0,24.0,58,0.00,,,0.00,Wunderground v.1.15,2013-02-14 18:00:00,
2013-02-14 12:10:00,49.6,35.4,29.58,West,264,6.0,6.0,58,0.00,,,0.00,Wunderground v.1.15,2013-02-14 18:10:00,
2013-02-14 12:20:00,50.5,36.3,29.57,SW,217,5.0,24.0,58,0.00,,,0.00,Wunderground v.1.15,2013-02-14 18:20:00,
2013-02-14 12:30:00,50.4,35.7,29.57,West,278,6.0,6.0,57,0.00,,,0.00,Wunderground v.1.15,2013-02-14 18:30:00,
2013-02-14 12:40:00,51.0,35.8,29.57,WSW,238,5.0,24.0,56,0.00,,,0.00,Wunderground v.1.15,2013-02-14 18:40:00,
2013-02-14 12:50:00,51.5,36.3,29.56,WSW,248,6.0,6.0,56,0.00,,,0.00,Wunderground v.1.15,2013-02-14 18:50:00,
2013-02-14 13:00:00,51.6,36.4,29.56,SE,131,5.0,5.0,56,0.00,,,0.00,Wunderground v.1.15,2013-02-14 19:00:00,
2013-02-14 13:10:00,52.4,36.7,29.56,SW,232,5.0,5.0,55,0.00,,,0.00,Wunderground v.1.15,2013-02-14 19:10:00,
2013-02-14 13:20:00,52.9,37.2,29.56,SW,215,3.0,24.0,55,0.00,,,0.00,Wunderground v.1.15,2013-02-14 19:20:00,
2013-02-14 13:30:00,52.6,36.9,29.56,SSW,209,6.0,6.0,55,0.00,,,0.00,Wunderground v.1.15,2013-02-14 19:30:00,
2013-02-14 13:40:00,53.2,36.5,29.56,WSW,242,4.0,24.0,53,0.00,,,0.00,Wunderground v.1.15,2013-02-14 19:40:00,
2013-02-14 13:50:00,52.8,37.1,29.56,West,275,4.0,4.0,55,0.00,,,0.00,Wunderground v.1.15,2013-02-14 19:50:00,
2013-02-14 13:55:00,53.4,36.7,29.56,WSW,249,4.0,10.0,53,0.00,,,0.00,Wunderground v.1.15,2013-02-14 19:55:00,
2013-02-14 14:05:00,53.4,37.2,29.56,WSW,255,5.0,24.0,54,0.00,,,0.00,Wunderground v.1.15,2013-02-14 20:05:00,
2013-02-14 14:15:00,54.0,37.7,29.56,SW,226,5.0,24.0,54,0.00,,,0.00,Wunderground v.1.15,2013-02-14 20:15:00,
2013-02-14 14:25:00,54.2,37.4,29.56,SW,217,4.0,6.0,53,0.00,,,0.00,Wunderground v.1.15,2013-02-14 20:25:00,
2013-02-14 14:35:00,53.7,37.4,29.56,WSW,241,6.0,24.0,54,0.00,,,0.00,Wunderground v.1.15,2013-02-14 20:35:00,
2013-02-14 14:40:00,54.1,37.3,29.56,WSW,237,5.0,5.0,53,0.00,,,0.00,Wunderground v.1.15,2013-02-14 20:40:00,
2013-02-14 14:50:00,54.2,36.9,29.56,WSW,239,4.0,24.0,52,0.00,,,0.00,Wunderground v.1.15,2013-02-14 20:50:00,
2013-02-14 15:00:00,54.2,37.4,29.56,WSW,249,5.0,5.0,53,0.00,,,0.00,Wunderground v.1.15,2013-02-14 21:00:00,
2013-02-14 15:10:00,54.2,36.5,29.56,SW,229,6.0,24.0,51,0.00,,,0.00,Wunderground v.1.15,2013-02-14 21:10:00,
2013-02-14 15:20:00,54.3,37.5,29.57,SW,217,5.0,24.0,53,0.00,,,0.00,Wunderground v.1.15,2013-02-14 21:20:00,
2013-02-14 15:30:00,54.3,37.5,29.57,WSW,240,6.0,6.0,53,0.00,,,0.00,Wunderground v.1.15,2013-02-14 21:30:00,
2013-02-14 15:40:00,54.7,37.9,29.57,SW,217,5.0,24.0,53,0.00,,,0.00,Wunderground v.1.15,2013-02-14 21:40:00,
2013-02-14 15:50:00,54.9,38.1,29.57,WSW,245,3.0,24.0,53,0.00,,,0.00,Wunderground v.1.15,2013-02-14 21:50:00,
2013-02-14 16:00:00,54.5,37.7,29.57,SW,227,5.0,24.0,53,0.00,,,0.00,Wunderground v.1.15,2013-02-14 22:00:00,
2013-02-14 16:05:00,54.4,38.1,29.57,WSW,239,4.0,24.0,54,0.00,,,0.00,Wunderground v.1.15,2013-02-14 22:05:00,
2013-02-14 16:15:00,54.7,38.4,29.57,SW,224,3.0,24.0,54,0.00,,,0.00,Wunderground v.1.15,2013-02-14 22:15:00,
2013-02-14 16:25:00,55.1,38.7,29.57,SW,229,3.0,5.0,54,0.00,,,0.00,Wunderground v.1.15,2013-02-14 22:25:00,
2013-02-14 16:35:00,55.1,38.3,29.57,South,186,5.0,24.0,53,0.00,,,0.00,Wunderground v.1.15,2013-02-14 22:35:00,
2013-02-14 16:45:00,54.8,38.0,29.57,SW,222,4.0,8.0,53,0.00,,,0.00,Wunderground v.1.15,2013-02-14 22:45:00,
2013-02-14 16:55:00,54.2,37.4,29.57,SW,229,7.0,7.0,53,0.00,,,0.00,Wunderground v.1.15,2013-02-14 22:55:00,
2013-02-14 17:05:00,53.6,37.8,29.57,SSW,203,3.0,24.0,55,0.00,,,0.00,Wunderground v.1.15,2013-02-14 23:05:00,
2013-02-14 17:15:00,53.1,37.8,29.58,SSW,203,3.0,24.0,56,0.00,,,0.00,Wunderground v.1.15,2013-02-14 23:15:00,
2013-02-14 17:25:00,52.6,37.8,29.58,SW,219,2.0,24.0,57,0.00,,,0.00,Wunderground v.1.15,2013-02-14 23:25:00,
2013-02-14 17:35:00,52.0,37.2,29.58,SSW,207,1.0,24.0,57,0.00,,,0.00,Wunderground v.1.15,2013-02-14 23:35:00,
2013-02-14 17:45:00,51.5,37.6,29.58,SSW,205,1.0,24.0,59,0.00,,,0.00,Wunderground v.1.15,2013-02-14 23:45:00,
2013-02-14 17:50:00,51.2,37.8,29.59,SSW,204,1.0,24.0,60,0.00,,,0.00,Wunderground v.1.15,2013-02-14 23:50:00,
2013-02-14 18:00:00,50.8,37.8,29.59,SW,221,2.0,2.0,61,0.00,,,0.00,Wunderground v.1.15,2013-02-15 00:00:00,
2013-02-14 18:10:00,50.5,38.0,29.60,SW,232,1.0,1.0,62,0.00,,,0.00,Wunderground v.1.15,2013-02-15 00:10:00,
2013-02-14 18:20:00,50.3,38.2,29.60,SSE,149,1.0,1.0,63,0.00,,,0.00,Wunderground v.1.15,2013-02-15 00:20:00,
2013-02-14 18:30:00,49.9,38.2,29.60,SSW,193,2.0,2.0,64,0.00,,,0.00,Wunderground v.1.15,2013-02-15 00:30:00,
2013-02-14 18:40:00,49.5,38.2,29.60,SE,143,1.0,1.0,65,0.00,,,0.00,Wunderground v.1.15,2013-02-15 00:40:00,
2013-02-14 18:50:00,49.3,38.0,29.60,South,184,0.0,24.0,65,0.00,,,0.00,Wunderground v.1.15,2013-02-15 00:50:00,
2013-02-14 19:00:00,49.0,38.1,29.60,SW,221,0.0,24.0,66,0.00,,,0.00,Wunderground v.1.15,2013-02-15 01:00:00,
2013-02-14 19:10:00,48.6,37.7,29.61,SSW,201,0.0,24.0,66,0.00,,,0.00,Wunderground v.1.15,2013-02-15 01:10:00,
2013-02-14 19:20:00,48.1,37.7,29.61,SSW,212,0.0,24.0,67,0.00,,,0.00,Wunderground v.1.15,2013-02-15 01:20:00,
2013-02-14 19:30:00,47.6,37.6,29.61,South,187,0.0,24.0,68,0.00,,,0.00,Wunderground v.1.15,2013-02-15 01:30:00,
2013-02-14 19:40:00,47.4,37.4,29.61,WSW,240,0.0,24.0,68,0.00,,,0.00,Wunderground v.1.15,2013-02-15 01:40:00,
2013-02-14 19:45:00,47.5,37.5,29.61,WSW,240,0.0,24.0,68,0.00,,,0.00,Wunderground v.1.15,2013-02-15 01:45:00,
2013-02-14 19:55:00,47.4,37.4,29.61,West,281,0.0,24.0,68,0.00,,,0.00,Wunderground v.1.15,2013-02-15 01:55:00,
2013-02-14 20:05:00,47.1,37.4,29.62,NW,317,1.0,24.0,69,0.00,,,0.00,Wunderground v.1.15,2013-02-15 02:05:00,
2013-02-14 20:10:00,47.2,37.9,29.62,NNW,335,1.0,24.0,70,0.00,,,0.00,Wunderground v.1.15,2013-02-15 02:10:00,
2013-02-14 20:20:00,46.9,37.6,29.62,WNW,290,0.0,24.0,70,0.00,,,0.00,Wunderground v.1.15,2013-02-15 02:20:00,
2013-02-14 20:30:00,46.6,37.7,29.63,WSW,253,0.0,24.0,71,0.00,,,0.00,Wunderground v.1.15,2013-02-15 02:30:00,
2013-02-14 20:40:00,46.5,38.0,29.63,West,277,0.0,24.0,72,0.00,,,0.00,Wunderground v.1.15,2013-02-15 02:40:00,
2013-02-14 20:50:00,46.4,37.9,29.63,West,259,1.0,1.0,72,0.00,,,0.00,Wunderground v.1.15,2013-02-15 02:50:00,
2013-02-14 20:55:00,46.4,37.9,29.63,West,259,0.0,24.0,72,0.00,,,0.00,Wunderground v.1.15,2013-02-15 02:55:00,
2013-02-14 21:00:00,45.9,37.7,29.63,SW,217,0.0,24.0,73,0.00,,,0.00,Wunderground v.1.15,2013-02-15 03:00:00,
2013-02-14 21:10:00,45.3,37.5,29.63,SW,233,0.0,24.0,74,0.00,,,0.00,Wunderground v.1.15,2013-02-15 03:10:00,
2013-02-14 21:15:00,44.7,37.6,29.64,WNW,301,1.0,24.0,76,0.00,,,0.00,Wunderground v.1.15,2013-02-15 03:15:00,
2013-02-14 21:25:00,45.7,38.6,29.64,West,277,2.0,3.0,76,0.00,,,0.00,Wunderground v.1.15,2013-02-15 03:25:00,
2013-02-14 21:35:00,45.7,38.6,29.64,West,260,1.0,24.0,76,0.00,,,0.00,Wunderground v.1.15,2013-02-15 03:35:00,
2013-02-14 21:45:00,45.4,38.3,29.64,West,262,1.0,24.0,76,0.00,,,0.00,Wunderground v.1.15,2013-02-15 03:45:00,
2013-02-14 21:50:00,45.3,38.5,29.64,West,259,0.0,24.0,77,0.00,,,0.00,Wunderground v.1.15,2013-02-15 03:50:00,
2013-02-14 22:00:00,45.1,38.3,29.64,West,274,1.0,24.0,77,0.00,,,0.00,Wunderground v.1.15,2013-02-15 04:00:00,
2013-02-14 22:10:00,45.2,37.7,29.64,WNW,285,1.0,24.0,75,0.00,,,0.00,Wunderground v.1.15,2013-02-15 04:10:00,
2013-02-14 22:20:00,45.2,37.1,29.64,WNW,293,1.0,1.0,73,0.00,,,0.00,Wunderground v.1.15,2013-02-15 04:20:00,
2013-02-14 22:25:00,45.2,35.6,29.64,WNW,296,1.0,24.0,69,0.00,,,0.00,Wunderground v.1.15,2013-02-15 04:25:00,
2013-02-14 22:35:00,45.3,34.2,29.64,NW,311,1.0,24.0,65,0.00,,,0.00,Wunderground v.1.15,2013-02-15 04:35:00,
2013-02-14 22:45:00,45.2,33.7,29.64,WNW,301,3.0,24.0,64,0.00,,,0.00,Wunderground v.1.15,2013-02-15 04:45:00,
2013-02-14 22:55:00,44.9,33.5,29.65,NW,309,1.0,24.0,64,0.00,,,0.00,Wunderground v.1.15,2013-02-15 04:55:00,
2013-02-14 23:00:00,44.7,33.3,29.64,NW,309,1.0,24.0,64,0.00,,,0.00,Wunderground v.1.15,2013-02-15 05:00:00,
2013-02-14 23:05:00,44.5,32.7,29.64,WNW,297,2.0,24.0,63,0.00,,,0.00,Wunderground v.1.15,2013-02-15 05:05:00,
2013-02-14 23:15:00,44.1,31.5,29.65,West,272,2.0,3.0,61,0.00,,,0.00,Wunderground v.1.15,2013-02-15 05:15:00,
2013-02-14 23:25:00,44.0,31.4,29.65,NW,309,3.0,24.0,61,0.00,,,0.00,Wunderground v.1.15,2013-02-15 05:25:00,
2013-02-14 23:35:00,43.4,31.2,29.65,NW,323,1.0,24.0,62,0.00,,,0.00,Wunderground v.1.15,2013-02-15 05:35:00,
2013-02-14 23:45:00,43.0,31.3,29.65,NNW,340,3.0,24.0,63,0.00,,,0.00,Wunderground v.1.15,2013-02-15 05:45:00,
2013-02-14 23:50:00,42.9,31.2,29.65,NNW,328,3.0,3.0,63,0.00,,,0.00,Wunderground v.1.15,2013-02-15 05:50:00,